RH
36 37 39 40 40 41 40 39 38 36 34 33 32 31 30 30 30 30 30 31 31 31 32 32 33 33 34 34 34 34 34 34 35 35 35 34 34 34 33 33 32 30 29 28 27 26 24 23 21 21 20 20
35 35 37 38 40 41 42 42 41 41 39 38 37 36 35 34 34 33 33 33 34 34 35 35 35 36 36 36 37 37 37 37 37 37 37 37 36 36 35 34 33 32 31 30 29 28 26 25 23 22 22 21
35 35 37 38 40 41 42 43 43 43 42 42 41 41 40 40 39 38 38 38 38 38 38 39 39 39 39 39 39 39 40 39 40 39 39 38 38 37 36 36 35 34 33 32 31 29 28 27 26 25 24 23
36 36 37 38 40 41 42 43 44 45 45 45 45 45 45 45 45 45 45 44 44 43 43 43 43 43 43 43 43 42 42 42 41 41 40 39 39 38 37 37 36 35 34 34 33 31 31 30 29 27 27 26
38 38 38 38 39 40 42 44 45 47 49 50 50 50 50 49 50 50 50 50 49 49 48 48 47 47 47 46 46 45 44 43 42 41 41 40 39 38 38 37 37 37 37 36 35 34 33 32 31 30 29 28
41 41 41 41 41 42 43 44 45 47 49 51 52 53 53 53 53 53 54 53 53 53 52 52 51 51 50 49 47 46 45 44 43 42 41 40 40 38 38 37 38 39 39 39 38 37 36 35 34 32 31 30
31 34 37 39 40 42 42 43 44 45 47 49 52 54 56 57 57 57 58 58 58 57 57 56 55 54 53 52 50 49 48 47 46 45 43 42 41 40 39 40 41 42 42 42 41 40 39 37 36 35 34 33
20 23 27 32 36 40 42 44 45 46 46 47 48 51 54 56 58 59 60 62 62 61 62 61 60 59 58 57 56 56 55 54 52 50 49 47 46 44 43 44 45 45 45 45 44 43 42 40 39 38 37 35
25 27 32 39 44 48 52 55 57 58 56 55 53 52 52 53 54 56 58 61 63 63 64 64 63 62 63 63 63 63 62 61 60 58 56 54 52 50 48 48 48 48 48 48 47 46 45 44 42 41 39 38
39 41 46 52 57 64 71 77 80 81 79 77 74 70 66 63 62 61 61 63 65 64 64 64 63 63 64 65 66 67 68 67 66 64 63 60 58 55 52 52 52 52 51 51 50 49 48 46 45 43 41 40
53 55 56 57 60 68 78 87 93 97 99 100 98 93 88 84 80 76 74 74 74 71 69 68 66 65 64 65 66 67 67 68 67 66 65 63 61 58 55 54 55 54 54 53 52 51 49 48 46 44 43 42
62 64 63 61 62 67 75 81 91 101 104 106 106 104 101 98 94 89 86 88 87 82 79 76 75 73 71 71 71 70 69 67 66 64 64 63 61 59 56 55 56 56 55 55 54 52 50 48 47 45 44 43
61 65 67 66 66 68 72 75 84 95 99 98 97 99 99 97 96 93 91 94 95 90 87 84 83 82 80 80 80 78 76 73 68 64 63 62 61 59 56 55 55 56 56 56 54 53 51 49 48 46 45 44
59 60 61 62 63 64 67 68 71 80 87 85 84 88 91 90 90 90 88 89 91 90 89 88 87 86 85 85 86 84 81 78 73 67 63 62 61 59 56 56 55 56 56 55 54 53 51 49 48 47 46 45
61 60 58 56 57 58 57 57 58 61 67 69 70 74 79 80 80 83 85 84 84 84 84 84 83 83 81 80 80 79 77 75 71 65 63 61 61 60 57 55 55 56 55 53 52 51 50 49 47 47 46 46
62 62 60 57 55 55 54 53 52 52 53 54 56 58 63 67 69 72 74 76 77 77 78 77 75 75 74 72 70 67 64 63 61 58 58 59 59 59 57 54 54 54 53 52 51 49 49 47 46 46 45 45
60 61 60 59 57 55 54 53 53 52 51 50 48 48 50 54 56 57 58 59 60 62 64 63 61 62 63 63 61 57 52 50 52 52 52 54 54 54 53 51 50 50 48 48 48 46 46 45 44 43 42 42
60 59 58 58 57 55 54 52 51 51 51 51 49 47 46 47 48 46 45 45 45 46 48 48 47 49 50 50 50 49 46 43 44 46 46 48 49 48 47 46 45 45 43 41 42 41 41 40 40 39 39 39
68 64 61 59 58 57 55 54 52 50 50 49 48 48 47 47 47 46 43 41 41 41 41 41 41 42 42 42 42 42 41 39 39 40 41 43 44 44 43 42 41 40 39 36 36 36 35 34 34 35 35 35
73 71 69 66 63 61 59 57 55 53 51 50 48 47 47 48 48 47 46 44 43 42 42 42 40 41 40 39 39 39 38 35 35 36 37 39 40 40 39 38 37 36 35 32 32 31 31 30 30 32 32 32
64 66 67 66 66 64 63 61 59 57 55 53 51 49 48 48 48 48 47 47 46 44 44 44 43 43 42 42 41 40 39 37 36 36 37 38 39 38 36 35 34 32 31 29 29 29 29 29 29 30 30 31
46 49 53 55 57 58 59 59 59 59 58 56 54 52 50 49 48 48 49 48 47 46 46 46 45 44 44 44 44 43 42 42 41 41 41 42 43 42 39 37 34 33 32 30 30 30 31 31 30 30 30 30
24 29 33 37 41 44 47 49 50 52 54 55 55 54 52 50 49 48 48 48 47 46 46 47 48 47 46 46 46 46 44 44 44 44 46 46 46 45 43 41 39 37 35 34 33 34 34 33 32 32 32 31
15 16 18 20 23 27 30 33 36 39 42 45 48 50 51 50 50 48 47 46 46 45 44 45 46 47 47 47 49 49 47 47 47 47 49 49 48 47 47 46 44 42 40 39 38 37 37 37 37 36 36 36
16 16 15 15 16 16 18 19 21 23 26 29 33 37 42 45 46 47 47 46 45 44 43 43 44 45 45 44 46 47 47 46 47 48 49 51 51 51 51 49 47 45 43 41 40 40 40 39 39 39 38 38
16 17 17 17 17 16 15 15 15 16 17 17 19 22 26 30 34 37 40 42 43 43 42 42 42 44 45 45 46 47 45 43 43 44 46 49 52 54 54 51 49 47 44 43 42 41 39 38 38 37 37 36
12 13 14 16 17 17 16 15 15 15 15 15 15 15 16 18 20 23 27 30 33 35 36 37 37 39 42 45 47 49 48 44 42 41 42 45 49 52 52 50 48 47 46 45 42 41 39 38 37 36 36 36
9 9 10 11 12 14 15 15 15 15 15 15 15 15 15 14 14 15 17 19 21 22 24 25 27 29 32 36 39 42 44 44 42 41 41 42 44 46 47 45 43 43 44 44 42 40 39 36 35 36 37 37
7 7 7 7 8 9 11 12 13 13 13 13 14 15 15 14 14 14 14 14 15 16 16 17 17 18 20 23 26 29 32 35 36 36 37 38 39 40 40 39 36 35 37 38 38 37 36 34 33 34 34 33
5 5 5 5 6 6 7 8 9 10 11 11 12 13 14 14 14 14 14 14 13 14 14 14 14 14 14 15 16 18 20 22 23 25 27 29 32 33 33 32 30 29 30 31 31 30 31 31 29 28 26 26
3 4 4 4 4 4 5 5 6 7 8 9 10 11 12 12 13 14 14 14 14 13 13 13 13 13 13 13 13 14 14 14 15 15 16 18 20 23 24 24 25 25 26 28 29 28 28 28 26 24 22 22
Wind_Speed
92 91 91 90 90 90 90 91 91 91 91 91 91 91 91 90 89 89 89 88 88 88 88 88 88 88 88 88 88 87 88 87 87 87 87 87 87 87 88 89 90 90 89 89 89 89 89 90 90 91 91 91
97 96 95 95 94 93 93 93 93 93 93 93 93 93 93 92 92 92 91 91 91 91 90 90 90 90 90 90 90 89 89 89 89 89 89 88 88 88 88 89 90 90 90 91 91 90 90 91 91 91 91 91
101 100 99 99 98 97 96 95 95 95 95 95 95 94 94 94 94 94 93 93 93 93 92 92 92 92 92 92 92 92 91 91 91 91 90 90 89 89 89 89 90 91 92 92 92 91 91 91 92 92 92 92
105 105 104 103 102 101 99 98 98 97 97 96 96 96 95 95 94 94 94 94 94 94 94 94 93 93 93 94 93 93 93 93 93 93 92 92 91 91 90 90 91 92 93 93 93 92 92 92 92 92 91 91
108 108 108 107 106 104 103 102 101 99 98 98 97 97 96 96 95 95 95 95 95 95 95 95 95 94 95 95 95 95 95 95 95 95 94 94 93 92 92 92 92 92 93 94 94 93 93 92 92 92 91 91
109 109 109 109 108 107 107 105 104 103 101 100 99 98 98 97 97 96 96 96 96 96 96 96 95 96 96 96 96 96 96 96 96 96 95 95 94 93 92 92 92 93 94 94 94 93 93 93 92 92 91 91
107 107 107 107 107 107 108 108 107 106 105 104 102 101 99 99 98 98 97 97 96 96 96 96 96 96 96 96 96 96 96 95 95 95 94 94 93 92 92 92 92 93 94 94 94 93 93 93 93 92 92 91
99 100 100 101 101 102 103 104 105 106 106 107 106 105 103 102 101 100 99 97 97 97 96 96 95 95 94 94 94 94 94 93 93 93 92 92 92 92 91 91 92 93 93 94 93 93 93 93 93 92 92 91
90 91 92 93 94 95 96 97 98 100 102 103 104 105 105 105 104 103 102 100 99 99 98 97 96 95 94 94 93 93 93 92 92 92 91 91 91 91 91 91 92 93 93 93 93 93 93 93 93 92 92 92
85 86 87 88 89 90 91 92 93 94 95 97 98 100 101 102 102 102 102 101 101 101 100 99 99 97 96 95 95 94 94 93 93 93 92 92 92 92 91 92 92 93 93 93 93 93 93 93 93 93 93 92
82 83 85 86 87 88 89 90 91 92 93 93 95 96 97 98 98 99 99 98 99 100 100 99 99 99 98 97 97 97 96 96 95 94 93 93 93 93 92 92 93 93 94 94 94 94 93 93 93 93 93 93
82 83 85 86 86 87 88 90 90 91 92 93 94 95 96 96 96 97 97 96 97 99 98 98 97 97 97 97 98 98 98 97 97 96 95 95 94 94 94 93 94 94 94 95 95 94 94 94 94 94 94 94
84 85 86 87 87 88 89 90 91 91 93 94 94 95 96 97 97 97 97 97 97 98 98 97 97 97 97 97 98 99 99 98 98 97 96 95 95 95 95 95 95 95 95 96 96 95 95 95 95 95 95 95
87 88 89 89 90 90 91 91 92 93 94 96 96 96 97 98 98 98 99 98 98 99 99 99 98 98 98 98 99 100 100 100 99 97 96 96 96 96 96 96 96 96 97 97 97 97 97 97 97 97 96 96
90 90 91 92 92 93 93 94 95 95 96 97 98 97 98 99 100 100 100 100 100 100 100 101 100 100 100 100 101 101 101 101 100 98 97 97 97 97 97 98 98 98 98 98 99 99 99 99 98 98 98 98
94 94 94 94 95 95 96 96 96 97 98 99 99 99 99 101 102 102 102 103 103 102 102 103 102 102 102 102 103 103 103 102 100 99 98 97 98 98 99 99 99 100 100 100 100 101 100 101 100 100 100 100
99 99 99 99 99 98 98 98 98 99 99 100 100 100 100 101 103 103 104 104 104 104 104 104 104 104 104 104 104 103 103 101 100 99 98 98 99 99 100 100 101 102 102 102 102 103 102 102 102 102 102 102
104 104 103 103 103 103 102 102 101 101 101 101 101 101 100 101 102 103 104 104 104 104 104 104 104 103 103 104 103 103 102 100 99 99 98 99 100 100 101 101 102 103 104 103 103 104 104 103 103 103 103 102
110 110 109 109 108 107 107 106 106 105 105 104 104 104 103 102 102 103 103 103 102 102 102 102 102 102 102 102 102 101 101 100 98 98 98 99 100 101 102 102 103 104 105 104 104 104 104 104 103 103 103 102
116 116 115 114 114 113 112 111 111 110 109 109 108 107 106 105 105 105 105 104 103 102 102 102 101 100 101 100 100 100 100 99 97 97 98 99 100 102 102 103 104 104 105 105 104 104 104 103 102 102 102 102
121 121 120 120 119 118 118 117 116 115 114 114 113 112 111 110 109 108 108 108 107 105 104 103 103 102 101 101 100 100 99 98 96 96 97 98 100 102 103 104 104 104 105 105 103 103 102 102 101 101 101 101
123 124 124 124 124 123 122 122 121 120 120 119 118 117 116 115 113 112 112 112 111 109 107 107 106 106 104 103 102 102 101 99 98 97 97 99 101 103 104 104 104 104 104 104 103 102 102 102 102 101 101 101
121 123 125 126 126 126 126 126 125 125 124 124 123 122 121 120 119 118 116 116 115 114 112 111 110 110 109 107 106 106 104 102 101 100 100 102 104 104 105 104 104 104 104 104 103 103 102 101 101 101 100 99
119 121 122 124 126 127 127 128 127 127 127 126 126 126 126 125 124 123 122 121 120 119 117 116 115 115 114 112 111 111 109 107 106 105 105 106 106 107 107 107 107 107 106 106 105 104 103 102 102 102 101 99
116 118 120 121 123 124 126 127 127 127 127 127 127 128 128 128 128 127 126 126 125 124 123 121 120 119 119 117 116 116 115 113 112 111 110 110 110 110 111 111 111 111 110 109 107 106 106 105 105 104 103 102
111 114 117 119 121 122 123 124 125 125 126 126 127 127 128 128 129 129 129 129 129 128 127 126 125 124 123 123 122 121 121 119 117 116 114 114 114 115 116 116 116 116 114 112 111 111 111 110 109 108 107 106
107 109 112 115 118 120 122 122 123 123 124 124 124 125 126 126 127 128 129 130 130 130 130 129 128 127 127 127 127 127 126 125 123 121 119 119 119 120 121 121 120 120 118 117 116 116 115 114 113 112 111 110
106 107 109 111 113 116 118 120 121 122 122 122 122 123 124 124 125 126 127 128 129 130 130 130 130 129 129 129 130 130 130 129 128 126 125 124 124 125 125 125 124 123 122 121 121 120 119 118 117 116 115 115
106 107 108 109 110 112 114 116 118 120 120 121 120 121 122 123 124 124 125 125 126 127 128 129 129 129 129 130 130 130 131 132 131 130 129 128 128 128 129 128 127 126 125 125 124 123 123 122 121 121 120 120
104 105 106 107 107 108 110 112 114 116 118 118 118 119 120 121 122 123 124 124 125 125 126 126 127 128 128 127 128 129 130 131 132 131 131 130 130 131 131 131 129 128 127 127 126 126 125 126 126 125 124 123
101 102 103 104 104 104 106 108 109 111 114 115 116 116 117 118 120 121 122 123 124 124 125 125 126 127 127 126 126 127 128 129 130 130 130 130 130 132 132 131 130 129 128 128 128 128 128 128 128 127 126 125
Wind_Direction
261 261 261 261 261 261 261 261 261 261 261 261 261 261 261 261 260 260 260 260 260 259 259 259 259 259 259 259 259 259 259 259 259 259 260 260 260 260 260 260 260 260 259 258 257 257 256 256 256 256 255 255
261 261 261 260 260 260 260 260 261 261 261 261 261 261 261 261 261 261 261 261 260 260 260 260 260 260 260 260 260 260 260 260 260 260 260 260 260 260 259 259 259 259 258 257 257 255 255 254 254 254 254 254
261 261 260 260 260 260 260 260 260 260 261 261 261 261 261 261 261 261 261 260 260 260 260 260 260 260 260 260 260 260 260 260 261 260 260 260 260 259 259 258 258 257 257 257 256 255 254 253 253 253 253 253
261 261 261 260 260 260 260 260 260 260 260 260 260 260 259 259 259 259 259 259 259 259 259 259 259 259 259 260 260 260 260 260 260 260 260 259 259 258 258 257 257 256 256 255 255 254 253 252 252 251 251 251
262 262 262 261 261 260 260 260 259 259 259 259 258 258 258 258 257 257 257 257 257 257 257 257 257 258 258 258 258 259 259 259 259 259 259 259 259 258 257 257 256 255 255 254 254 253 253 252 251 250 250 250
263 262 262 262 261 261 260 259 259 258 258 258 257 257 257 257 256 256 256 256 256 256 256 256 256 256 256 257 257 257 258 258 258 258 258 258 258 257 256 255 255 254 253 253 253 252 252 251 250 250 249 249
262 262 261 261 261 261 260 260 259 258 258 257 256 256 256 256 255 255 255 255 255 255 255 255 255 255 255 256 256 256 257 257 257 257 257 256 256 255 254 253 253 252 252 252 252 252 251 251 250 249 249 248
261 260 260 260 260 259 259 259 259 258 258 257 256 256 255 255 255 254 254 254 254 254 254 254 254 254 254 255 255 255 255 255 255 255 255 254 254 253 252 252 251 251 251 250 250 250 250 250 250 249 249 248
259 259 258 258 258 257 257 258 257 257 257 257 257 256 256 255 255 254 254 254 254 254 254 254 254 253 253 253 253 253 253 253 253 253 253 253 252 252 251 250 250 250 249 249 249 249 249 249 249 249 249 248
258 258 257 256 256 256 256 256 256 256 256 256 256 256 256 255 255 255 254 254 254 254 254 254 254 253 253 253 252 252 252 252 253 253 252 252 251 251 250 249 249 248 248 248 248 248 248 248 248 248 248 248
258 258 257 256 255 255 255 254 254 254 254 254 255 255 255 255 255 254 254 254 254 254 254 254 254 254 253 253 252 252 252 253 253 253 252 251 251 250 249 248 248 248 247 247 247 247 247 247 247 247 247 247
259 258 257 257 256 255 255 254 254 254 254 253 254 254 254 254 254 254 253 253 253 253 253 253 253 253 253 252 253 253 253 254 254 253 253 252 251 250 249 248 247 247 247 246 246 246 246 246 246 247 247 247
259 258 258 257 256 255 255 254 254 253 253 253 253 253 253 254 253 253 253 252 252 252 252 252 252 252 252 252 252 253 254 254 254 254 253 252 251 250 250 249 247 247 246 246 246 246 246 246 246 246 246 247
259 259 258 258 257 256 255 255 254 253 253 253 253 252 253 253 253 253 253 253 252 252 252 252 252 252 252 252 252 253 254 254 254 254 253 252 251 250 250 249 248 247 246 246 246 246 246 246 246 246 246 246
259 259 259 258 258 257 257 256 255 255 254 254 253 253 253 253 253 253 253 253 253 253 253 253 253 252 252 252 253 253 254 254 254 253 252 251 251 250 249 249 248 247 247 246 246 245 245 246 246 246 246 246
259 259 259 259 259 258 258 257 257 256 256 255 255 254 254 254 254 254 254 254 254 254 254 254 254 254 254 254 254 254 254 254 254 253 252 251 250 250 249 248 247 247 247 246 246 246 245 246 246 246 246 246
259 259 259 259 259 259 258 258 257 257 257 256 256 256 255 255 255 255 255 255 255 255 255 255 255 255 255 255 255 255 255 254 254 253 253 252 251 250 249 248 248 247 247 246 246 246 246 246 246 246 246 246
261 260 259 259 259 259 259 259 258 258 258 257 257 257 256 255 255 256 256 255 255 255 255 255 256 256 255 255 255 255 255 255 254 253 253 252 252 251 250 250 249 248 248 247 247 247 247 246 247 247 247 247
261 261 260 260 260 259 259 259 259 259 258 258 258 258 257 257 256 256 257 256 256 256 256 256 256 256 256 256 256 255 255 255 254 254 253 253 252 252 251 251 250 249 249 248 248 248 248 248 248 248 248 249
261 260 260 260 260 260 259 259 259 259 259 259 259 258 258 258 257 257 257 257 257 257 256 256 256 256 256 255 255 255 255 255 255 254 254 253 253 252 252 251 251 250 250 250 249 249 250 250 249 249 250 250
261 261 260 260 259 259 259 259 259 259 259 259 259 259 258 258 258 258 258 258 258 257 257 257 257 256 256 256 256 255 255 255 254 254 254 254 253 253 253 252 252 251 251 251 251 251 251 251 251 250 250 250
260 260 260 260 260 259 259 259 259 259 259 259 259 259 259 258 258 258 257 258 258 258 257 257 257 257 256 256 256 256 255 255 255 254 254 253 253 253 253 253 253 252 252 252 252 252 251 251 251 251 250 250
259 259 259 259 259 259 259 258 258 258 258 258 258 259 259 259 259 258 258 258 258 258 258 257 257 257 257 256 256 256 256 256 255 255 254 253 253 253 253 253 253 253 253 252 252 252 251 251 252 251 251 251
259 259 258 258 258 258 258 258 258 258 257 257 257 258 258 258 258 259 259 258 258 258 258 257 257 257 257 257 256 256 256 256 255 255 254 254 254 254 254 254 254 254 253 253 253 253 253 252 252 252 252 252
260 260 259 258 258 258 257 258 257 257 257 257 257 257 257 257 257 258 258 258 258 258 258 258 257 257 258 257 257 257 256 256 255 255 254 254 255 255 255 255 255 255 254 254 254 254 254 253 253 253 253 253
258 258 258 258 258 258 257 257 256 256 256 256 256 256 256 256 256 257 257 257 257 258 258 258 257 257 257 257 257 257 257 256 256 255 255 254 254 255 255 255 255 255 255 255 256 255 255 255 255 254 254 254
258 256 255 255 256 256 257 256 256 255 255 255 255 255 255 255 255 255 256 256 256 257 257 257 257 256 256 257 257 257 257 257 256 256 255 255 255 255 255 255 255 255 256 256 256 256 256 256 256 256 255 256
258 257 255 254 253 254 255 255 255 255 254 254 253 253 254 254 254 254 254 254 255 255 256 256 256 256 256 256 256 256 256 256 256 256 255 255 255 255 255 255 255 255 256 256 256 256 257 257 257 257 257 256
259 257 256 255 254 253 253 253 254 255 254 254 253 253 252 253 253 253 253 253 253 253 254 255 255 255 255 255 255 255 255 256 256 255 255 255 255 255 255 255 255 255 255 256 256 256 257 257 257 257 257 256
261 260 259 257 256 255 254 253 253 254 254 254 253 253 252 252 252 252 252 252 252 252 253 253 253 254 254 254 254 254 255 255 255 255 255 255 255 255 255 255 255 255 255 256 256 256 257 257 257 257 256 256
265 264 262 261 259 257 256 255 254 253 253 253 253 253 252 252 252 251 251 252 252 252 252 252 252 253 253 253 253 253 254 254 254 254 254 254 254 254 254 254 254 255 255 256 256 257 257 257 257 257 257 257